AFR305 LFPG-KJFK

Flight info

Callsign AFR305
Flight time 7h 19m
Altitude 34000
Route ELCOB UT300 SENLO DCT JSY DCT LIZAD DCT LESLU DCT MALOT/M083F360 DCT 54N020W 54N030W 54N040W 53N050W DCT RIKAL/N0471F360 N572A TOPPS DCT ENE PARCH4
Aircraft B77W/H-SDE1E2E3FGHIJ2J3J4J5M1RWXY/LB1D1

Departure

Time 2026-05-05 06:28
Airport Charles de Gaulle International Airport (LFPG)

Arrival

Time 2026-05-05 13:47
Airport John F. Kennedy International Airport (KJFK)
Time Latitude Longitude Altitude Speed Heading
2026-05-05 05:40 49.00142 2.58019 359 ft 0 kts 355°
2026-05-05 06:11 49.00165 2.58017 361 ft 0 kts 355°
2026-05-05 06:16 49.00163 2.58017 361 ft 1 kts 355°
2026-05-05 06:16 49.00134 2.58020 359 ft 2 kts 349°
2026-05-05 06:16 49.00091 2.58061 368 ft 8 kts 295°
2026-05-05 06:16 49.00083 2.58104 366 ft 0 kts 264°
2026-05-05 06:19 49.00081 2.58078 366 ft 8 kts 263°
2026-05-05 06:19 49.00076 2.57989 366 ft 8 kts 265°
2026-05-05 06:20 49.00071 2.57907 362 ft 8 kts 264°
2026-05-05 06:20 49.00066 2.57825 364 ft 8 kts 264°
2026-05-05 06:20 49.00061 2.57735 365 ft 9 kts 265°
2026-05-05 06:20 49.00055 2.57628 362 ft 11 kts 265°
2026-05-05 06:21 49.00053 2.57504 362 ft 12 kts 266°
2026-05-05 06:21 49.00044 2.57381 362 ft 10 kts 264°
2026-05-05 06:21 49.00020 2.57306 364 ft 7 kts 217°
2026-05-05 06:21 48.99973 2.57265 367 ft 8 kts 224°
2026-05-05 06:22 48.99950 2.57168 365 ft 10 kts 261°
2026-05-05 06:22 48.99944 2.57067 366 ft 10 kts 265°
2026-05-05 06:22 48.99938 2.56942 359 ft 13 kts 268°
2026-05-05 06:22 48.99933 2.56805 359 ft 12 kts 265°
2026-05-05 06:23 48.99923 2.56677 362 ft 12 kts 264°
2026-05-05 06:23 48.99916 2.56546 367 ft 14 kts 265°
2026-05-05 06:23 48.99908 2.56385 363 ft 16 kts 265°
2026-05-05 06:23 48.99899 2.56217 363 ft 16 kts 265°
2026-05-05 06:24 48.99891 2.56054 359 ft 14 kts 265°
2026-05-05 06:24 48.99896 2.55919 359 ft 12 kts 280°
2026-05-05 06:24 48.99884 2.55821 368 ft 8 kts 222°
2026-05-05 06:24 48.99831 2.55804 365 ft 8 kts 179°
2026-05-05 06:25 48.99775 2.55807 364 ft 8 kts 176°
2026-05-05 06:25 48.99723 2.55813 361 ft 5 kts 176°
2026-05-05 06:25 48.99718 2.55813 363 ft 0 kts 176°
2026-05-05 06:25 48.99713 2.55814 361 ft 6 kts 176°
2026-05-05 06:26 48.99665 2.55816 367 ft 6 kts 179°
2026-05-05 06:26 48.99622 2.55829 363 ft 7 kts 151°
2026-05-05 06:26 48.99607 2.55883 364 ft 3 kts 94°
2026-05-05 06:26 48.99607 2.55885 363 ft 0 kts 93°
2026-05-05 06:27 48.99679 2.57265 357 ft 132 kts 84°
2026-05-05 06:27 48.99776 2.58915 379 ft 179 kts 85°
2026-05-05 06:28 48.99839 2.60779 1009 ft 172 kts 86°
2026-05-05 06:28 48.99920 2.62612 1667 ft 172 kts 82°
2026-05-05 06:28 49.00031 2.64452 2270 ft 176 kts 84°
2026-05-05 06:28 49.00141 2.66321 2825 ft 179 kts 84°
2026-05-05 06:29 49.00252 2.68236 3304 ft 183 kts 84°
2026-05-05 06:29 49.00363 2.70174 3820 ft 184 kts 85°
2026-05-05 06:29 49.00467 2.72178 4143 ft 200 kts 85°
2026-05-05 06:29 49.00581 2.74381 4348 ft 222 kts 85°
2026-05-05 06:30 49.00707 2.76839 4668 ft 240 kts 85°
2026-05-05 06:30 49.00662 2.79435 5100 ft 252 kts 97°
2026-05-05 06:30 49.00362 2.82110 5713 ft 260 kts 99°
2026-05-05 06:30 49.00037 2.84824 6360 ft 265 kts 98°
2026-05-05 06:31 48.99722 2.87604 7072 ft 267 kts 98°
2026-05-05 06:31 48.99419 2.90412 7814 ft 269 kts 98°
2026-05-05 06:31 48.99119 2.93244 8471 ft 274 kts 98°
2026-05-05 06:31 48.98808 2.96134 9152 ft 276 kts 101°
2026-05-05 06:32 48.98027 2.98819 9698 ft 284 kts 128°
2026-05-05 06:32 48.96464 3.00698 10226 ft 295 kts 153°
2026-05-05 06:32 48.94432 3.01512 10411 ft 320 kts 176°
2026-05-05 06:32 48.92143 3.01080 10585 ft 346 kts 197°
2026-05-05 06:33 48.89933 2.99365 10820 ft 368 kts 217°
2026-05-05 06:33 48.88153 2.96474 11351 ft 380 kts 236°
2026-05-05 06:33 48.87090 2.92764 12113 ft 387 kts 255°
2026-05-05 06:33 48.86567 2.88728 13025 ft 391 kts 261°
2026-05-05 06:34 48.86189 2.84681 13986 ft 392 kts 262°
2026-05-05 06:34 48.85783 2.80539 14793 ft 397 kts 259°
2026-05-05 06:34 48.85309 2.76358 15519 ft 404 kts 258°
2026-05-05 06:34 48.84772 2.72148 16290 ft 409 kts 257°
2026-05-05 06:35 48.84190 2.67886 17083 ft 413 kts 257°
2026-05-05 06:35 48.83583 2.63593 17859 ft 418 kts 256°
2026-05-05 06:35 48.82966 2.59296 18523 ft 424 kts 256°
2026-05-05 06:35 48.82331 2.54884 19200 ft 429 kts 256°
2026-05-05 06:36 48.81692 2.50439 19934 ft 431 kts 256°
2026-05-05 06:36 48.81266 2.47486 20399 ft 433 kts 256°
2026-05-05 06:36 48.80443 2.41518 21226 ft 437 kts 261°
2026-05-05 06:36 48.80486 2.36858 21642 ft 449 kts 281°
2026-05-05 06:37 48.81446 2.32356 22136 ft 450 kts 289°
2026-05-05 06:37 48.82134 2.29343 22461 ft 454 kts 287°
2026-05-05 06:37 48.83414 2.23248 23308 ft 459 kts 286°
2026-05-05 06:37 48.84048 2.20094 23712 ft 461 kts 285°
2026-05-05 06:38 48.84964 2.15476 24267 ft 464 kts 285°
2026-05-05 06:38 48.85894 2.10761 24810 ft 466 kts 285°
2026-05-05 06:38 48.86832 2.06016 25342 ft 469 kts 285°
2026-05-05 06:38 48.87776 2.01247 25858 ft 472 kts 284°
2026-05-05 06:39 48.88728 1.96444 26371 ft 475 kts 284°
2026-05-05 06:39 48.89673 1.91678 26864 ft 478 kts 284°
2026-05-05 06:39 48.90633 1.86821 27365 ft 480 kts 284°
2026-05-05 06:39 48.91596 1.81937 27830 ft 483 kts 284°
2026-05-05 06:40 48.92564 1.77019 28301 ft 486 kts 284°
2026-05-05 06:40 48.93536 1.72065 28696 ft 489 kts 284°
2026-05-05 06:40 48.94512 1.67080 29066 ft 492 kts 284°
2026-05-05 06:40 48.95474 1.62150 29519 ft 493 kts 283°
2026-05-05 06:41 48.96447 1.57157 30095 ft 491 kts 283°
2026-05-05 06:41 48.97414 1.52181 30638 ft 488 kts 283°
2026-05-05 06:41 48.98372 1.47240 31133 ft 486 kts 283°
2026-05-05 06:41 48.99326 1.42298 31585 ft 485 kts 282°
2026-05-05 06:42 49.00276 1.37365 32022 ft 484 kts 282°
2026-05-05 06:42 49.01209 1.32511 32449 ft 483 kts 282°
2026-05-05 06:42 49.02153 1.27588 32865 ft 483 kts 282°
2026-05-05 06:42 49.03082 1.22667 33254 ft 481 kts 279°
2026-05-05 06:43 49.03635 1.17689 33605 ft 473 kts 269°
2026-05-05 06:43 49.03795 1.12683 33846 ft 473 kts 266°
2026-05-05 06:43 49.03862 1.07720 33874 ft 474 kts 265°
2026-05-05 06:44 49.03996 0.97689 33875 ft 470 kts 266°
2026-05-05 06:44 49.04224 0.87759 33896 ft 468 kts 267°
2026-05-05 06:45 49.04498 0.77829 33886 ft 469 kts 267°
2026-05-05 06:45 49.04776 0.67861 33886 ft 471 kts 267°
2026-05-05 06:46 49.05042 0.57923 33888 ft 473 kts 267°
2026-05-05 06:46 49.05298 0.47886 33891 ft 474 kts 267°
2026-05-05 06:47 49.05547 0.37800 33892 ft 476 kts 267°
2026-05-05 06:47 49.05786 0.27746 33878 ft 477 kts 267°
2026-05-05 06:48 49.06020 0.17622 33886 ft 476 kts 267°
2026-05-05 06:48 49.06243 0.07504 33881 ft 476 kts 267°
2026-05-05 06:49 49.06455 -0.02537 33913 ft 475 kts 267°
2026-05-05 06:49 49.06660 -0.12616 33901 ft 475 kts 267°
2026-05-05 06:50 49.06856 -0.22618 33903 ft 474 kts 267°
2026-05-05 06:50 49.07043 -0.32667 33905 ft 473 kts 267°
2026-05-05 06:51 49.07224 -0.42723 33913 ft 473 kts 267°
2026-05-05 06:51 49.07395 -0.52717 33912 ft 473 kts 267°
2026-05-05 06:52 49.07558 -0.62788 33909 ft 474 kts 267°
2026-05-05 06:52 49.07713 -0.72794 33905 ft 474 kts 267°
2026-05-05 06:53 49.07859 -0.82858 33905 ft 474 kts 267°
2026-05-05 06:53 49.07996 -0.92855 33917 ft 474 kts 267°
2026-05-05 06:54 49.08126 -1.02930 33908 ft 474 kts 267°
2026-05-05 06:54 49.08249 -1.12990 33911 ft 473 kts 268°
2026-05-05 06:55 49.09031 -1.22950 33909 ft 479 kts 279°
2026-05-05 06:55 49.10673 -1.32812 33935 ft 479 kts 281°
2026-05-05 06:56 49.12309 -1.42625 33925 ft 480 kts 280°
2026-05-05 06:56 49.13914 -1.52548 33923 ft 480 kts 280°
2026-05-05 06:57 49.15492 -1.62462 33929 ft 480 kts 280°
2026-05-05 06:57 49.17065 -1.72405 33937 ft 481 kts 280°
2026-05-05 06:58 49.18626 -1.82324 33949 ft 483 kts 280°
2026-05-05 06:58 49.20190 -1.92309 33941 ft 482 kts 280°
2026-05-05 06:59 49.21733 -2.02221 33938 ft 481 kts 280°
2026-05-05 06:59 49.23345 -2.12156 33938 ft 481 kts 282°
2026-05-05 07:00 49.25067 -2.22062 33950 ft 480 kts 282°
2026-05-05 07:00 49.26771 -2.31898 33958 ft 480 kts 282°
2026-05-05 07:01 49.28463 -2.41826 33965 ft 480 kts 282°
2026-05-05 07:01 49.30135 -2.51743 33963 ft 480 kts 282°
2026-05-05 07:02 49.31787 -2.61610 33963 ft 480 kts 282°
2026-05-05 07:02 49.33438 -2.71534 33970 ft 479 kts 283°
2026-05-05 07:03 49.35086 -2.81476 33956 ft 481 kts 282°
2026-05-05 07:03 49.36729 -2.91455 33939 ft 481 kts 282°
2026-05-05 07:04 49.38349 -3.01350 33957 ft 480 kts 282°
2026-05-05 07:04 49.39966 -3.11287 33964 ft 479 kts 282°
2026-05-05 07:05 49.41572 -3.21218 33954 ft 478 kts 283°
2026-05-05 07:05 49.43167 -3.31133 33967 ft 478 kts 283°
2026-05-05 07:06 49.44756 -3.41071 33974 ft 479 kts 283°
2026-05-05 07:06 49.46326 -3.50951 33974 ft 479 kts 282°
2026-05-05 07:07 49.47901 -3.60928 33965 ft 480 kts 282°
2026-05-05 07:07 49.49477 -3.70965 33982 ft 482 kts 282°
2026-05-05 07:08 49.51047 -3.81031 33981 ft 484 kts 282°
2026-05-05 07:08 49.52604 -3.91071 33965 ft 486 kts 282°
2026-05-05 07:09 49.54168 -4.01221 33965 ft 486 kts 282°
2026-05-05 07:09 49.55713 -4.11317 33970 ft 487 kts 282°
2026-05-05 07:10 49.57265 -4.21504 33985 ft 487 kts 282°
2026-05-05 07:10 49.59118 -4.31545 33978 ft 487 kts 291°
2026-05-05 07:11 49.62100 -4.40863 33968 ft 487 kts 302°
2026-05-05 07:11 49.65750 -4.49686 33972 ft 486 kts 302°
2026-05-05 07:12 49.69380 -4.58419 33974 ft 485 kts 303°
2026-05-05 07:12 49.72990 -4.67214 33985 ft 483 kts 303°
2026-05-05 07:13 49.76570 -4.76026 33992 ft 483 kts 303°
2026-05-05 07:13 49.80124 -4.84816 33995 ft 483 kts 303°
2026-05-05 07:14 49.83686 -4.93656 33996 ft 483 kts 303°
2026-05-05 07:14 49.87219 -5.02450 33993 ft 483 kts 303°
2026-05-05 07:15 49.90778 -5.11338 34004 ft 483 kts 302°
2026-05-05 07:15 49.94302 -5.20169 33995 ft 484 kts 302°
2026-05-05 07:16 49.97845 -5.29076 33996 ft 484 kts 302°
2026-05-05 07:16 50.01381 -5.37995 33995 ft 484 kts 302°
2026-05-05 07:17 50.04882 -5.46858 33994 ft 483 kts 302°
2026-05-05 07:17 50.08401 -5.55797 33998 ft 482 kts 303°
2026-05-05 07:18 50.11893 -5.64697 34000 ft 480 kts 303°
2026-05-05 07:18 50.15349 -5.73533 33992 ft 479 kts 303°
2026-05-05 07:19 50.18817 -5.82431 33992 ft 478 kts 303°
2026-05-05 07:19 50.22266 -5.91312 34002 ft 477 kts 303°
2026-05-05 07:20 50.25690 -6.00156 34006 ft 477 kts 303°
2026-05-05 07:20 50.29098 -6.08992 34019 ft 477 kts 303°
2026-05-05 07:21 50.32523 -6.17901 34028 ft 477 kts 303°
2026-05-05 07:21 50.35920 -6.26768 34031 ft 477 kts 303°
2026-05-05 07:22 50.39334 -6.35708 34033 ft 478 kts 303°
2026-05-05 07:22 50.42747 -6.44678 34040 ft 478 kts 303°
2026-05-05 07:23 50.46130 -6.53601 34040 ft 478 kts 304°
2026-05-05 07:23 50.49523 -6.62585 34041 ft 477 kts 304°
2026-05-05 07:24 50.52343 -6.70067 34051 ft 477 kts 304°
2026-05-05 07:24 50.55720 -6.79059 34051 ft 476 kts 304°
2026-05-05 07:25 50.59067 -6.88003 34057 ft 476 kts 304°
2026-05-05 07:25 50.62425 -6.97008 34059 ft 476 kts 304°
2026-05-05 07:26 50.65773 -7.06020 34052 ft 475 kts 304°
2026-05-05 07:26 50.69080 -7.14951 34057 ft 473 kts 303°
2026-05-05 07:27 50.72389 -7.23921 34063 ft 471 kts 303°
2026-05-05 07:27 50.75664 -7.32825 34070 ft 470 kts 303°
2026-05-05 07:28 50.78949 -7.41788 34071 ft 470 kts 303°
2026-05-05 07:28 50.82199 -7.50688 34074 ft 470 kts 303°
2026-05-05 07:29 50.85461 -7.59653 34074 ft 469 kts 303°
2026-05-05 07:29 50.88714 -7.68625 34078 ft 469 kts 303°
2026-05-05 07:30 50.91941 -7.77556 34083 ft 469 kts 303°
2026-05-05 07:30 50.96795 -7.91048 34081 ft 469 kts 303°
2026-05-05 07:31 51.00003 -8.00001 34086 ft 469 kts 302°
2026-05-05 07:31 51.03099 -8.09153 34078 ft 470 kts 300°
2026-05-05 07:32 51.06082 -8.18388 34143 ft 470 kts 299°
2026-05-05 07:32 51.07578 -8.23031 34356 ft 472 kts 299°
2026-05-05 07:32 51.09082 -8.27689 34423 ft 473 kts 299°
2026-05-05 07:33 51.12064 -8.36901 34485 ft 468 kts 299°
2026-05-05 07:33 51.15043 -8.46099 34505 ft 468 kts 299°
2026-05-05 07:34 51.16542 -8.50736 34681 ft 470 kts 299°
2026-05-05 07:34 51.18038 -8.55370 35013 ft 469 kts 299°
2026-05-05 07:34 51.19531 -8.60010 35376 ft 467 kts 298°
2026-05-05 07:34 51.20993 -8.64559 35759 ft 465 kts 298°
2026-05-05 07:35 51.22465 -8.69153 36000 ft 465 kts 298°
2026-05-05 07:35 51.23947 -8.73781 36042 ft 468 kts 298°
2026-05-05 07:35 51.26906 -8.83052 36095 ft 467 kts 298°
2026-05-05 07:36 51.29823 -8.92228 36106 ft 465 kts 298°
2026-05-05 07:36 51.32746 -9.01459 36109 ft 464 kts 298°
2026-05-05 07:37 51.35662 -9.10700 36110 ft 464 kts 298°
2026-05-05 07:37 51.38546 -9.19874 36108 ft 463 kts 297°
2026-05-05 07:38 51.41440 -9.29115 36112 ft 463 kts 297°
2026-05-05 07:38 51.44334 -9.38388 36119 ft 464 kts 297°
2026-05-05 07:39 51.47195 -9.47593 36119 ft 464 kts 297°
2026-05-05 07:39 51.50070 -9.56880 36117 ft 464 kts 297°
2026-05-05 07:40 51.52938 -9.66177 36122 ft 464 kts 296°
2026-05-05 07:40 51.55780 -9.75427 36114 ft 463 kts 296°
2026-05-05 07:41 51.58614 -9.84684 36117 ft 463 kts 296°
2026-05-05 07:41 51.61456 -9.94003 36117 ft 463 kts 296°
2026-05-05 07:42 51.64283 -10.03309 36123 ft 462 kts 296°
2026-05-05 07:42 51.67106 -10.12641 36116 ft 462 kts 296°
2026-05-05 07:43 51.69900 -10.21908 36119 ft 462 kts 296°
2026-05-05 07:43 51.72704 -10.31245 36119 ft 462 kts 296°
2026-05-05 07:44 51.75481 -10.40529 36120 ft 461 kts 296°
2026-05-05 07:44 51.78267 -10.49880 36120 ft 461 kts 296°
2026-05-05 07:45 51.81045 -10.59239 36134 ft 461 kts 296°
2026-05-05 07:45 51.83818 -10.68618 36127 ft 462 kts 296°
2026-05-05 07:46 51.86569 -10.77962 36119 ft 461 kts 296°
2026-05-05 07:46 51.89326 -10.87362 36127 ft 461 kts 296°
2026-05-05 07:47 51.92055 -10.96700 36128 ft 461 kts 296°
2026-05-05 07:47 51.94797 -11.06122 36130 ft 461 kts 295°
2026-05-05 07:48 51.97510 -11.15480 36133 ft 460 kts 295°
2026-05-05 07:48 52.00230 -11.24902 36140 ft 460 kts 295°
2026-05-05 07:49 52.02944 -11.34340 36131 ft 460 kts 295°
2026-05-05 07:49 52.05622 -11.43688 36135 ft 459 kts 295°
2026-05-05 07:50 52.08311 -11.53112 36140 ft 458 kts 295°
2026-05-05 07:50 52.10990 -11.62541 36142 ft 458 kts 295°
2026-05-05 07:51 52.13657 -11.71963 36144 ft 458 kts 295°
2026-05-05 07:51 52.16303 -11.81351 36144 ft 458 kts 295°
2026-05-05 07:52 52.18954 -11.90792 36145 ft 458 kts 295°
2026-05-05 07:52 52.21600 -12.00254 36151 ft 458 kts 295°
2026-05-05 07:53 52.24222 -12.09668 36152 ft 458 kts 294°
2026-05-05 07:53 52.26855 -12.19161 36155 ft 458 kts 294°
2026-05-05 07:54 52.29486 -12.28687 36156 ft 459 kts 294°
2026-05-05 07:54 52.32092 -12.38156 36161 ft 459 kts 294°
2026-05-05 07:55 52.34705 -12.47694 36158 ft 459 kts 294°
2026-05-05 07:55 52.37294 -12.57181 36163 ft 459 kts 294°
2026-05-05 07:56 52.39892 -12.66742 36164 ft 459 kts 294°
2026-05-05 07:56 52.42479 -12.76302 36167 ft 458 kts 294°
2026-05-05 07:57 52.45055 -12.85863 36171 ft 458 kts 294°
2026-05-05 07:57 52.47623 -12.95431 36171 ft 457 kts 294°
2026-05-05 07:58 52.50169 -13.04958 36171 ft 457 kts 294°
2026-05-05 07:58 52.52713 -13.14517 36181 ft 456 kts 294°
2026-05-05 07:59 52.55248 -13.24081 36176 ft 456 kts 294°
2026-05-05 07:59 52.57756 -13.33582 36180 ft 455 kts 294°
2026-05-05 08:00 52.60269 -13.43147 36185 ft 454 kts 294°
2026-05-05 08:00 52.62770 -13.52701 36184 ft 454 kts 294°
2026-05-05 08:01 52.65249 -13.62213 36185 ft 454 kts 294°
2026-05-05 08:01 52.67731 -13.71777 36183 ft 453 kts 294°
2026-05-05 08:02 52.70203 -13.81342 36194 ft 453 kts 294°
2026-05-05 08:02 52.72656 -13.90876 36191 ft 453 kts 293°
2026-05-05 08:03 52.75116 -14.00476 36194 ft 453 kts 293°
2026-05-05 08:03 52.77568 -14.10087 36197 ft 453 kts 293°
2026-05-05 08:04 52.79998 -14.19653 36197 ft 453 kts 293°
2026-05-05 08:04 52.82437 -14.29294 36193 ft 453 kts 293°
2026-05-05 08:05 52.84849 -14.38874 36200 ft 453 kts 293°
2026-05-05 08:05 52.87271 -14.48530 36208 ft 453 kts 292°
2026-05-05 08:06 52.89684 -14.58194 36208 ft 453 kts 292°
2026-05-05 08:06 52.92076 -14.67818 36205 ft 453 kts 292°
2026-05-05 08:07 52.94475 -14.77510 36208 ft 453 kts 292°
2026-05-05 08:07 52.96849 -14.87143 36201 ft 453 kts 292°
2026-05-05 08:08 52.99232 -14.96852 36212 ft 453 kts 292°
2026-05-05 08:08 53.01537 -15.06548 36211 ft 453 kts 291°
2026-05-05 08:09 53.03729 -15.16381 36219 ft 453 kts 290°
2026-05-05 08:09 53.05537 -15.24570 36209 ft 454 kts 290°
2026-05-05 08:10 53.07719 -15.34423 36216 ft 454 kts 290°
2026-05-05 08:10 53.09891 -15.44231 36215 ft 454 kts 290°
2026-05-05 08:11 53.12071 -15.54101 36218 ft 454 kts 290°
2026-05-05 08:11 53.14243 -15.63984 36221 ft 454 kts 290°
2026-05-05 08:12 53.16394 -15.73820 36221 ft 454 kts 290°
2026-05-05 08:12 53.18550 -15.83727 36220 ft 454 kts 290°
2026-05-05 08:13 53.20699 -15.93651 36222 ft 454 kts 290°
2026-05-05 08:13 53.22838 -16.03580 36226 ft 454 kts 290°
2026-05-05 08:14 53.24958 -16.13464 36219 ft 454 kts 289°
2026-05-05 08:14 53.27084 -16.23422 36221 ft 454 kts 289°
2026-05-05 08:15 53.29199 -16.33382 36227 ft 454 kts 289°
2026-05-05 08:15 53.31288 -16.43269 36232 ft 454 kts 289°
2026-05-05 08:16 53.33387 -16.53250 36225 ft 454 kts 289°
2026-05-05 08:16 53.35477 -16.63238 36231 ft 454 kts 289°
2026-05-05 08:17 53.37543 -16.73155 36225 ft 454 kts 289°
2026-05-05 08:17 53.39618 -16.83173 36229 ft 454 kts 289°
2026-05-05 08:18 53.41669 -16.93123 36234 ft 454 kts 289°
2026-05-05 08:18 53.43725 -17.03145 36233 ft 454 kts 289°
2026-05-05 08:19 53.45775 -17.13189 36234 ft 454 kts 289°
2026-05-05 08:19 53.47816 -17.23239 36237 ft 454 kts 288°
2026-05-05 08:20 53.49835 -17.33236 36242 ft 454 kts 288°
2026-05-05 08:20 53.51861 -17.43312 36239 ft 454 kts 288°
2026-05-05 08:21 53.53862 -17.53321 36239 ft 454 kts 288°
2026-05-05 08:21 53.55870 -17.63416 36239 ft 454 kts 288°
2026-05-05 08:22 53.57871 -17.73526 36240 ft 454 kts 288°
2026-05-05 08:22 53.59849 -17.83571 36238 ft 454 kts 288°
2026-05-05 08:23 53.61829 -17.93683 36236 ft 454 kts 288°
2026-05-05 08:23 53.63804 -18.03816 36247 ft 454 kts 288°
2026-05-05 08:24 53.65754 -18.13881 36252 ft 454 kts 287°
2026-05-05 08:24 53.67711 -18.24030 36247 ft 454 kts 287°
2026-05-05 08:25 53.69658 -18.34186 36250 ft 454 kts 287°
2026-05-05 08:25 53.71585 -18.44287 36250 ft 454 kts 287°
2026-05-05 08:26 53.73514 -18.54455 36250 ft 454 kts 287°
2026-05-05 08:26 53.75435 -18.64631 36250 ft 453 kts 287°
2026-05-05 08:27 53.77331 -18.74736 36254 ft 453 kts 287°
2026-05-05 08:27 53.79234 -18.84930 36258 ft 453 kts 287°
2026-05-05 08:28 53.81115 -18.95062 36258 ft 454 kts 287°
2026-05-05 08:28 53.83003 -19.05284 36258 ft 454 kts 287°
2026-05-05 08:29 53.84880 -19.15507 36254 ft 454 kts 287°
2026-05-05 08:30 53.87669 -19.30800 36259 ft 454 kts 287°
2026-05-05 08:30 53.89525 -19.41051 36261 ft 454 kts 287°
2026-05-05 08:31 53.91357 -19.51221 36268 ft 454 kts 286°
2026-05-05 08:31 53.93196 -19.61489 36268 ft 455 kts 287°
2026-05-05 08:32 53.95020 -19.71733 36267 ft 455 kts 286°
2026-05-05 08:32 53.96848 -19.82057 36268 ft 455 kts 286°
2026-05-05 08:33 53.98667 -19.92379 36266 ft 456 kts 286°
2026-05-05 08:33 54.00122 -20.02791 36268 ft 456 kts 278°
2026-05-05 08:34 54.00611 -20.13524 36277 ft 456 kts 274°
2026-05-05 08:34 54.01001 -20.24307 36271 ft 456 kts 274°
2026-05-05 08:35 54.01401 -20.35032 36271 ft 456 kts 274°
2026-05-05 08:35 54.01809 -20.45829 36271 ft 456 kts 274°
2026-05-05 08:36 54.02214 -20.56635 36278 ft 458 kts 274°
2026-05-05 08:36 54.02609 -20.67459 36281 ft 459 kts 274°
2026-05-05 08:37 54.02993 -20.78258 36280 ft 460 kts 274°
2026-05-05 08:37 54.03370 -20.89150 36283 ft 461 kts 274°
2026-05-05 08:38 54.03735 -20.99991 36274 ft 461 kts 274°
2026-05-05 08:38 54.04092 -21.10902 36278 ft 461 kts 274°
2026-05-05 08:39 54.04441 -21.21827 36286 ft 462 kts 274°
2026-05-05 08:39 54.04779 -21.32760 36285 ft 462 kts 274°
2026-05-05 08:40 54.05106 -21.43620 36284 ft 461 kts 274°
2026-05-05 08:40 54.05424 -21.54549 36288 ft 461 kts 273°
2026-05-05 08:41 54.05732 -21.65460 36282 ft 461 kts 273°
2026-05-05 08:41 54.06029 -21.76305 36292 ft 461 kts 273°
2026-05-05 08:42 54.06318 -21.87239 36293 ft 461 kts 273°
2026-05-05 08:42 54.06597 -21.98172 36292 ft 462 kts 273°
2026-05-05 08:43 54.06864 -22.09035 36290 ft 462 kts 273°
2026-05-05 08:43 54.07124 -22.19990 36292 ft 462 kts 273°
2026-05-05 08:44 54.07373 -22.30940 36295 ft 462 kts 273°
2026-05-05 08:44 54.07611 -22.41835 36293 ft 462 kts 273°
2026-05-05 08:45 54.07841 -22.52777 36297 ft 462 kts 272°
2026-05-05 08:45 54.08061 -22.63730 36297 ft 462 kts 272°
2026-05-05 08:46 54.08270 -22.74685 36293 ft 462 kts 273°
2026-05-05 08:46 54.08469 -22.85580 36299 ft 462 kts 272°
2026-05-05 08:47 54.08659 -22.96547 36308 ft 463 kts 272°
2026-05-05 08:47 54.08840 -23.07531 36303 ft 464 kts 272°
2026-05-05 08:48 54.09010 -23.18538 36305 ft 465 kts 272°
2026-05-05 08:48 54.09170 -23.29496 36309 ft 466 kts 272°
2026-05-05 08:49 54.09321 -23.40553 36301 ft 466 kts 273°
2026-05-05 08:49 54.09463 -23.51611 36310 ft 466 kts 273°
2026-05-05 08:50 54.09593 -23.62599 36305 ft 466 kts 272°
2026-05-05 08:50 54.09714 -23.73673 36309 ft 466 kts 272°
2026-05-05 08:51 54.09825 -23.84728 36311 ft 466 kts 272°
2026-05-05 08:51 54.09925 -23.95791 36304 ft 465 kts 272°
2026-05-05 08:52 54.10015 -24.06764 36308 ft 465 kts 272°
2026-05-05 08:52 54.10095 -24.17770 36316 ft 464 kts 272°
2026-05-05 08:53 54.10165 -24.28781 36316 ft 464 kts 272°
2026-05-05 08:53 54.10225 -24.39723 36317 ft 464 kts 272°
2026-05-05 08:54 54.10275 -24.50735 36301 ft 464 kts 273°
2026-05-05 08:54 54.10315 -24.61748 36316 ft 464 kts 272°
2026-05-05 08:55 54.10345 -24.72675 36323 ft 464 kts 272°
2026-05-05 08:55 54.10365 -24.83680 36319 ft 464 kts 272°
2026-05-05 08:56 54.10374 -24.92826 36319 ft 464 kts 272°
2026-05-05 08:56 54.10375 -25.05616 36323 ft 464 kts 272°
2026-05-05 08:57 54.10367 -25.14777 36317 ft 463 kts 272°
2026-05-05 08:57 54.10348 -25.25763 36322 ft 463 kts 272°
2026-05-05 08:58 54.10320 -25.36751 36325 ft 463 kts 272°
2026-05-05 08:58 54.10282 -25.47657 36327 ft 462 kts 272°
2026-05-05 08:59 54.10234 -25.58639 36333 ft 463 kts 272°
2026-05-05 08:59 54.10175 -25.69615 36317 ft 462 kts 272°
2026-05-05 09:00 54.10108 -25.80507 36326 ft 462 kts 272°
2026-05-05 09:00 54.10029 -25.91470 36342 ft 462 kts 272°
2026-05-05 09:01 54.09942 -26.02404 36339 ft 461 kts 272°
2026-05-05 09:01 54.09845 -26.13284 36339 ft 461 kts 272°
2026-05-05 09:02 54.09737 -26.24246 36317 ft 461 kts 272°
2026-05-05 09:02 54.09619 -26.35180 36337 ft 460 kts 271°
2026-05-05 09:03 54.09492 -26.46029 36338 ft 460 kts 271°
2026-05-05 09:03 54.09356 -26.56944 36343 ft 460 kts 271°
2026-05-05 09:04 54.09209 -26.67864 36342 ft 460 kts 271°
2026-05-05 09:04 54.09053 -26.78700 36351 ft 461 kts 271°
2026-05-05 09:05 54.08886 -26.89632 36340 ft 461 kts 271°
2026-05-05 09:05 54.08710 -27.00510 36348 ft 461 kts 271°
2026-05-05 09:06 54.08523 -27.11457 36349 ft 462 kts 271°
2026-05-05 09:06 54.08326 -27.22423 36347 ft 463 kts 271°
2026-05-05 09:07 54.08120 -27.33335 36346 ft 463 kts 271°
2026-05-05 09:07 54.07902 -27.44324 36328 ft 463 kts 271°
2026-05-05 09:08 54.07676 -27.55226 36344 ft 463 kts 271°
2026-05-05 09:08 54.07439 -27.66189 36350 ft 463 kts 271°
2026-05-05 09:09 54.07191 -27.77164 36352 ft 463 kts 271°
2026-05-05 09:09 54.06934 -27.88135 36353 ft 463 kts 271°
2026-05-05 09:10 54.06668 -27.99038 36351 ft 463 kts 271°
2026-05-05 09:10 54.06391 -28.10011 36357 ft 464 kts 271°
2026-05-05 09:11 54.06103 -28.21020 36358 ft 465 kts 271°
2026-05-05 09:11 54.05806 -28.31968 36360 ft 465 kts 271°
2026-05-05 09:12 54.05498 -28.42985 36353 ft 466 kts 271°
2026-05-05 09:12 54.05178 -28.54034 36356 ft 466 kts 271°
2026-05-05 09:13 54.04848 -28.65065 36351 ft 466 kts 271°
2026-05-05 09:13 54.04511 -28.76022 36353 ft 466 kts 271°
2026-05-05 09:14 54.04162 -28.87041 36362 ft 465 kts 271°
2026-05-05 09:14 54.03804 -28.98009 36360 ft 465 kts 270°
2026-05-05 09:15 54.03436 -29.08999 36359 ft 465 kts 270°
2026-05-05 09:15 54.03057 -29.19999 36356 ft 464 kts 271°
2026-05-05 09:16 54.02671 -29.30889 36354 ft 463 kts 271°
2026-05-05 09:16 54.02274 -29.41851 36360 ft 463 kts 271°
2026-05-05 09:17 54.01867 -29.52814 36360 ft 464 kts 270°
2026-05-05 09:17 54.01449 -29.63780 36362 ft 464 kts 270°
2026-05-05 09:18 54.01025 -29.74674 36338 ft 464 kts 270°
2026-05-05 09:18 54.00589 -29.85617 36356 ft 463 kts 270°
2026-05-05 09:19 54.00145 -29.96541 36360 ft 462 kts 271°
2026-05-05 09:19 54.00227 -30.07404 36365 ft 457 kts 278°
2026-05-05 09:20 54.00694 -30.18111 36359 ft 456 kts 278°
2026-05-05 09:20 54.01152 -30.28884 36359 ft 457 kts 278°
2026-05-05 09:21 54.01579 -30.39661 36346 ft 455 kts 278°
2026-05-05 09:21 54.01985 -30.50350 36349 ft 455 kts 278°
2026-05-05 09:22 54.02382 -30.61102 36361 ft 455 kts 278°
2026-05-05 09:22 54.02769 -30.71875 36357 ft 455 kts 278°
2026-05-05 09:23 54.03145 -30.82557 36357 ft 455 kts 278°
2026-05-05 09:23 54.03514 -30.93334 36358 ft 456 kts 278°
2026-05-05 09:24 54.03871 -31.04052 36344 ft 455 kts 277°
2026-05-05 09:24 54.04219 -31.14794 36346 ft 454 kts 277°
2026-05-05 09:25 54.04558 -31.25522 36347 ft 453 kts 277°
2026-05-05 09:25 54.04884 -31.36166 36345 ft 452 kts 277°
2026-05-05 09:26 54.05203 -31.46866 36343 ft 452 kts 277°
2026-05-05 09:26 54.05510 -31.57500 36346 ft 452 kts 277°
2026-05-05 09:27 54.05809 -31.68164 36340 ft 450 kts 277°
2026-05-05 09:27 54.06097 -31.78813 36338 ft 448 kts 276°
2026-05-05 09:28 54.06373 -31.89349 36341 ft 447 kts 276°
2026-05-05 09:28 54.06641 -31.99916 36333 ft 446 kts 276°
2026-05-05 09:29 54.06900 -32.10474 36332 ft 446 kts 276°
2026-05-05 09:29 54.07149 -32.21040 36328 ft 446 kts 276°
2026-05-05 09:30 54.07388 -32.31519 36342 ft 445 kts 275°
2026-05-05 09:30 54.07618 -32.42069 36333 ft 445 kts 275°
2026-05-05 09:31 54.07839 -32.52609 36329 ft 445 kts 275°
2026-05-05 09:31 54.08050 -32.63116 36324 ft 446 kts 275°
2026-05-05 09:32 54.08253 -32.73674 36330 ft 446 kts 275°
2026-05-05 09:32 54.08447 -32.84233 36318 ft 446 kts 275°
2026-05-05 09:33 54.08632 -32.94818 36312 ft 445 kts 274°
2026-05-05 09:33 54.08806 -33.05303 36314 ft 445 kts 274°
2026-05-05 09:34 54.08971 -33.15864 36321 ft 445 kts 274°
2026-05-05 09:34 54.09128 -33.26420 36320 ft 445 kts 274°
2026-05-05 09:35 54.09274 -33.36904 36314 ft 445 kts 274°
2026-05-05 09:35 54.09478 -33.52738 36314 ft 445 kts 274°
2026-05-05 09:36 54.09602 -33.63225 36300 ft 445 kts 272°
2026-05-05 09:36 54.09717 -33.73800 36309 ft 446 kts 272°
2026-05-05 09:37 54.09823 -33.84396 36312 ft 447 kts 272°
2026-05-05 09:37 54.09920 -33.94951 36311 ft 448 kts 272°
2026-05-05 09:38 54.10008 -34.05562 36299 ft 449 kts 272°
2026-05-05 09:38 54.10087 -34.16218 36308 ft 450 kts 272°
2026-05-05 09:39 54.10156 -34.26902 36308 ft 450 kts 272°
2026-05-05 09:39 54.10216 -34.37541 36300 ft 451 kts 272°
2026-05-05 09:40 54.10266 -34.48258 36295 ft 451 kts 272°
2026-05-05 09:40 54.10308 -34.58965 36289 ft 451 kts 271°
2026-05-05 09:41 54.10339 -34.69597 36292 ft 451 kts 271°
2026-05-05 09:41 54.10361 -34.80304 36287 ft 451 kts 271°
2026-05-05 09:42 54.10374 -34.89199 36272 ft 451 kts 270°
2026-05-05 09:42 54.10378 -34.99956 36287 ft 454 kts 270°
2026-05-05 09:43 54.10373 -35.10680 36281 ft 457 kts 270°
2026-05-05 09:43 54.10358 -35.21547 36276 ft 459 kts 270°
2026-05-05 09:44 54.10334 -35.32446 36275 ft 460 kts 270°
2026-05-05 09:44 54.10300 -35.43297 36267 ft 459 kts 270°
2026-05-05 09:45 54.10256 -35.54189 36255 ft 458 kts 269°
2026-05-05 09:45 54.10203 -35.64990 36251 ft 457 kts 268°
2026-05-05 09:46 54.10139 -35.75832 36249 ft 456 kts 269°
2026-05-05 09:46 54.10067 -35.86601 36245 ft 456 kts 268°
2026-05-05 09:47 54.09984 -35.97457 36251 ft 460 kts 268°
2026-05-05 09:47 54.09890 -36.08430 36240 ft 463 kts 268°
2026-05-05 09:48 54.09788 -36.19372 36237 ft 466 kts 267°
2026-05-05 09:48 54.09673 -36.30453 36233 ft 469 kts 266°
2026-05-05 09:49 54.09547 -36.41605 36226 ft 471 kts 267°
2026-05-05 09:49 54.09410 -36.52819 36226 ft 473 kts 265°
2026-05-05 09:50 54.09263 -36.63964 36206 ft 473 kts 265°
2026-05-05 09:50 54.09107 -36.75174 36206 ft 472 kts 267°
2026-05-05 09:51 54.08938 -36.86381 36216 ft 475 kts 265°
2026-05-05 09:51 54.08756 -36.97681 36205 ft 478 kts 265°
2026-05-05 09:52 54.08564 -37.08977 36203 ft 481 kts 265°
2026-05-05 09:52 54.08361 -37.20414 36193 ft 483 kts 265°
2026-05-05 09:53 54.08147 -37.31880 36194 ft 483 kts 265°
2026-05-05 09:53 54.07923 -37.43276 36192 ft 483 kts 264°
2026-05-05 09:54 54.07687 -37.54730 36170 ft 483 kts 264°
2026-05-05 09:54 54.07442 -37.66110 36158 ft 483 kts 264°
2026-05-05 09:55 54.07183 -37.77584 36165 ft 483 kts 264°
2026-05-05 09:55 54.06914 -37.88969 36160 ft 484 kts 264°
2026-05-05 09:56 54.06633 -38.00464 36145 ft 485 kts 264°
2026-05-05 09:56 54.06341 -38.11952 36148 ft 487 kts 263°
2026-05-05 09:57 54.06038 -38.23424 36141 ft 488 kts 263°
2026-05-05 09:57 54.05722 -38.35001 36135 ft 489 kts 263°
2026-05-05 09:58 54.05394 -38.46603 36115 ft 490 kts 263°
2026-05-05 09:58 54.05057 -38.58125 36114 ft 490 kts 263°
2026-05-05 09:59 54.04706 -38.69736 36147 ft 491 kts 262°
2026-05-05 09:59 54.04342 -38.81369 36101 ft 492 kts 262°
2026-05-05 10:00 54.03970 -38.92968 36099 ft 493 kts 262°
2026-05-05 10:00 54.03584 -39.04645 36086 ft 493 kts 262°
2026-05-05 10:01 54.03188 -39.16242 36088 ft 493 kts 262°
2026-05-05 10:01 54.02779 -39.27912 36070 ft 493 kts 262°
2026-05-05 10:02 54.02358 -39.39587 36082 ft 494 kts 261°
2026-05-05 10:02 54.01929 -39.51194 36070 ft 493 kts 261°
2026-05-05 10:03 54.01486 -39.62850 36068 ft 494 kts 261°
2026-05-05 10:03 54.01030 -39.74531 36055 ft 494 kts 261°
2026-05-05 10:04 54.00567 -39.86150 36053 ft 494 kts 261°
2026-05-05 10:04 54.00091 -39.97838 36066 ft 494 kts 261°
2026-05-05 10:05 53.99519 -40.09505 36055 ft 495 kts 259°
2026-05-05 10:05 53.98821 -40.21107 36045 ft 496 kts 258°
2026-05-05 10:06 53.98102 -40.32813 36037 ft 497 kts 258°
2026-05-05 10:06 53.97392 -40.44516 36038 ft 497 kts 258°
2026-05-05 10:07 53.96685 -40.56141 36043 ft 498 kts 258°
2026-05-05 10:07 53.95962 -40.67871 36026 ft 499 kts 258°
2026-05-05 10:08 53.95226 -40.79606 36018 ft 499 kts 258°
2026-05-05 10:08 53.94483 -40.91246 36027 ft 499 kts 258°
2026-05-05 10:09 53.93723 -41.02976 36020 ft 499 kts 258°
2026-05-05 10:09 53.92952 -41.14701 36018 ft 499 kts 258°
2026-05-05 10:10 53.92175 -41.26340 36042 ft 499 kts 257°
2026-05-05 10:10 53.91382 -41.38044 36024 ft 498 kts 257°
2026-05-05 10:11 53.90579 -41.49714 36016 ft 498 kts 257°
2026-05-05 10:11 53.89768 -41.61336 36007 ft 498 kts 257°
2026-05-05 10:12 53.88943 -41.73003 36012 ft 497 kts 257°
2026-05-05 10:12 53.88106 -41.84660 36049 ft 497 kts 257°
2026-05-05 10:13 53.87264 -41.96228 36003 ft 496 kts 257°
2026-05-05 10:13 53.86410 -42.07827 36000 ft 494 kts 257°
2026-05-05 10:14 53.85552 -42.19317 35997 ft 493 kts 256°
2026-05-05 10:14 53.84679 -42.30840 35997 ft 492 kts 256°
2026-05-05 10:15 53.83796 -42.42337 35996 ft 491 kts 256°
2026-05-05 10:15 53.82910 -42.53741 35998 ft 492 kts 257°
2026-05-05 10:16 53.82006 -42.65220 35992 ft 491 kts 257°
2026-05-05 10:16 53.81092 -42.76681 35984 ft 490 kts 256°
2026-05-05 10:17 53.80177 -42.88033 35986 ft 489 kts 256°
2026-05-05 10:17 53.79245 -42.99454 35981 ft 489 kts 256°
2026-05-05 10:18 53.78301 -43.10866 36007 ft 489 kts 257°
2026-05-05 10:18 53.77352 -43.22212 35983 ft 489 kts 257°
2026-05-05 10:19 53.76389 -43.33605 35981 ft 489 kts 257°
2026-05-05 10:19 53.75414 -43.44997 35967 ft 489 kts 256°
2026-05-05 10:20 53.74427 -43.56394 35968 ft 490 kts 256°
2026-05-05 10:20 53.73433 -43.67742 35965 ft 490 kts 256°
2026-05-05 10:21 53.72424 -43.79139 35966 ft 490 kts 257°
2026-05-05 10:21 53.71412 -43.90447 35956 ft 488 kts 257°
2026-05-05 10:22 53.70385 -44.01795 35956 ft 487 kts 257°
2026-05-05 10:22 53.69356 -44.13041 35947 ft 486 kts 256°
2026-05-05 10:23 53.68313 -44.24320 35963 ft 486 kts 256°
2026-05-05 10:23 53.67256 -44.35613 35949 ft 487 kts 256°
2026-05-05 10:24 53.66197 -44.46819 35932 ft 487 kts 256°
2026-05-05 10:24 53.65120 -44.58110 35928 ft 487 kts 256°
2026-05-05 10:25 53.64031 -44.69404 35927 ft 486 kts 256°
2026-05-05 10:25 53.62942 -44.80582 35913 ft 486 kts 256°
2026-05-05 10:26 53.61832 -44.91854 35938 ft 486 kts 256°
2026-05-05 10:26 53.60713 -45.03110 35915 ft 486 kts 256°
2026-05-05 10:27 53.59594 -45.14266 35898 ft 485 kts 256°
2026-05-05 10:27 53.58651 -45.23577 35906 ft 485 kts 256°
2026-05-05 10:28 53.57318 -45.36601 35896 ft 485 kts 256°
2026-05-05 10:28 53.56355 -45.45927 35887 ft 485 kts 256°
2026-05-05 10:29 53.55189 -45.57121 35875 ft 485 kts 256°
2026-05-05 10:29 53.54020 -45.68242 35869 ft 484 kts 256°
2026-05-05 10:30 53.52834 -45.79412 35870 ft 484 kts 255°
2026-05-05 10:30 53.51639 -45.90565 35854 ft 483 kts 255°
2026-05-05 10:31 53.50444 -46.01622 35855 ft 483 kts 255°
2026-05-05 10:31 53.49229 -46.12748 35908 ft 484 kts 255°
2026-05-05 10:32 53.48001 -46.23894 35853 ft 485 kts 255°
2026-05-05 10:32 53.46771 -46.34970 35838 ft 486 kts 255°
2026-05-05 10:33 53.45520 -46.46132 35835 ft 486 kts 255°
2026-05-05 10:33 53.44259 -46.57287 35836 ft 486 kts 255°
2026-05-05 10:34 53.42986 -46.68440 35819 ft 486 kts 255°
2026-05-05 10:34 53.41713 -46.79505 35819 ft 486 kts 255°
2026-05-05 10:35 53.40421 -46.90638 35810 ft 486 kts 255°
2026-05-05 10:35 53.39119 -47.01755 35813 ft 486 kts 254°
2026-05-05 10:36 53.37813 -47.12816 35797 ft 487 kts 254°
2026-05-05 10:36 53.36485 -47.23967 35789 ft 487 kts 254°
2026-05-05 10:37 53.35153 -47.35054 35797 ft 488 kts 254°
2026-05-05 10:37 53.33804 -47.46195 35774 ft 487 kts 254°
2026-05-05 10:38 53.32447 -47.57318 35768 ft 486 kts 254°
2026-05-05 10:38 53.31091 -47.68335 35769 ft 486 kts 254°
2026-05-05 10:39 53.29717 -47.79403 35747 ft 485 kts 254°
2026-05-05 10:39 53.28335 -47.90451 35798 ft 484 kts 254°
2026-05-05 10:40 53.26951 -48.01420 35755 ft 485 kts 254°
2026-05-05 10:40 53.25546 -48.12470 35728 ft 485 kts 254°
2026-05-05 10:41 53.24144 -48.23419 35731 ft 484 kts 253°
2026-05-05 10:41 53.22722 -48.34426 35724 ft 484 kts 253°
2026-05-05 10:42 53.20571 -48.50923 35731 ft 484 kts 253°
2026-05-05 10:43 53.19133 -48.61852 35715 ft 484 kts 253°
2026-05-05 10:43 53.17679 -48.72814 35700 ft 483 kts 253°
2026-05-05 10:44 53.16216 -48.83757 35702 ft 483 kts 253°
2026-05-05 10:44 53.14747 -48.94671 35691 ft 483 kts 253°
2026-05-05 10:45 53.13263 -49.05610 35682 ft 483 kts 253°
2026-05-05 10:45 53.11780 -49.16455 35684 ft 483 kts 253°
2026-05-05 10:46 53.10278 -49.27371 35659 ft 482 kts 253°
2026-05-05 10:46 53.08778 -49.38191 35673 ft 482 kts 253°
2026-05-05 10:47 53.07261 -49.49046 35655 ft 481 kts 253°
2026-05-05 10:47 53.05743 -49.59838 35647 ft 481 kts 253°
2026-05-05 10:48 53.04206 -49.70685 35668 ft 481 kts 253°
2026-05-05 10:48 53.02660 -49.81522 35651 ft 482 kts 253°
2026-05-05 10:49 53.01114 -49.92297 35627 ft 482 kts 252°
2026-05-05 10:49 52.99354 -50.03032 35620 ft 478 kts 245°
2026-05-05 10:50 52.96886 -50.13287 35623 ft 477 kts 244°
2026-05-05 10:50 52.94388 -50.23435 35639 ft 478 kts 244°
2026-05-05 10:51 52.91891 -50.33647 35602 ft 478 kts 244°
2026-05-05 10:51 52.89400 -50.43875 35596 ft 477 kts 244°
2026-05-05 10:52 52.86918 -50.54047 35596 ft 476 kts 244°
2026-05-05 10:52 52.84444 -50.64135 35597 ft 475 kts 245°
2026-05-05 10:53 52.81945 -50.74274 35611 ft 475 kts 245°
2026-05-05 10:53 52.79434 -50.84410 35588 ft 475 kts 245°
2026-05-05 10:54 52.76934 -50.94459 35582 ft 475 kts 244°
2026-05-05 10:54 52.74402 -51.04586 35581 ft 476 kts 244°
2026-05-05 10:55 52.71881 -51.14628 35567 ft 476 kts 244°
2026-05-05 10:55 52.69334 -51.24727 35571 ft 476 kts 245°
2026-05-05 10:56 52.66779 -51.34812 35550 ft 475 kts 245°
2026-05-05 10:56 52.64240 -51.44790 35555 ft 474 kts 244°
2026-05-05 10:57 52.61683 -51.54793 35552 ft 473 kts 244°
2026-05-05 10:57 52.59131 -51.64730 35539 ft 473 kts 244°
2026-05-05 10:58 52.56560 -51.74695 35541 ft 473 kts 244°
2026-05-05 10:58 52.53994 -51.84597 35537 ft 472 kts 244°
2026-05-05 10:59 52.51415 -51.94514 35532 ft 471 kts 244°
2026-05-05 10:59 52.48828 -52.04413 35531 ft 471 kts 244°
2026-05-05 11:00 52.46247 -52.14243 35519 ft 472 kts 244°
2026-05-05 11:00 52.43639 -52.24135 35518 ft 472 kts 244°
2026-05-05 11:01 52.41017 -52.34039 35515 ft 472 kts 243°
2026-05-05 11:01 52.38408 -52.43852 35514 ft 472 kts 244°
2026-05-05 11:02 52.35774 -52.53714 35516 ft 472 kts 244°
2026-05-05 11:02 52.33132 -52.63563 35518 ft 471 kts 243°
2026-05-05 11:03 52.30506 -52.73312 35513 ft 470 kts 244°
2026-05-05 11:03 52.27858 -52.83103 35510 ft 469 kts 244°
2026-05-05 11:04 52.25223 -52.92798 35509 ft 469 kts 243°
2026-05-05 11:04 52.22560 -53.02562 35499 ft 470 kts 244°
2026-05-05 11:05 52.19903 -53.12264 35513 ft 472 kts 244°
2026-05-05 11:05 52.17214 -53.22038 35485 ft 471 kts 243°
2026-05-05 11:06 52.14525 -53.31770 35486 ft 470 kts 244°
2026-05-05 11:06 52.11857 -53.41391 35476 ft 468 kts 244°
2026-05-05 11:07 52.09166 -53.51049 35476 ft 467 kts 244°
2026-05-05 11:07 52.06474 -53.60673 35474 ft 467 kts 244°
2026-05-05 11:08 52.03788 -53.70240 35484 ft 466 kts 243°
2026-05-05 11:08 52.01085 -53.79823 35478 ft 466 kts 244°
2026-05-05 11:09 51.98375 -53.89392 35490 ft 466 kts 243°
2026-05-05 11:09 51.95669 -53.98913 35490 ft 466 kts 243°
2026-05-05 11:10 51.92938 -54.08478 35483 ft 467 kts 244°
2026-05-05 11:10 51.90218 -54.17968 35475 ft 467 kts 244°
2026-05-05 11:11 51.87470 -54.27521 35461 ft 467 kts 244°
2026-05-05 11:11 51.84734 -54.36994 35463 ft 466 kts 244°
2026-05-05 11:12 51.81979 -54.46499 35467 ft 466 kts 244°
2026-05-05 11:12 51.79095 -54.55881 35467 ft 464 kts 238°
2026-05-05 11:13 51.75737 -54.64710 35475 ft 463 kts 238°
2026-05-05 11:13 51.72338 -54.73562 35468 ft 463 kts 238°
2026-05-05 11:14 51.69519 -54.80923 35472 ft 464 kts 238°
2026-05-05 11:14 51.65583 -54.91215 35465 ft 463 kts 238°
2026-05-05 11:15 51.62767 -54.98567 35481 ft 463 kts 238°
2026-05-05 11:15 51.59372 -55.07404 35482 ft 463 kts 238°
2026-05-05 11:16 51.55976 -55.16208 35479 ft 463 kts 238°
2026-05-05 11:16 51.52586 -55.24967 35466 ft 465 kts 238°
2026-05-05 11:17 51.49147 -55.33821 35461 ft 467 kts 238°
2026-05-05 11:17 51.45687 -55.42698 35455 ft 469 kts 238°
2026-05-05 11:18 51.42235 -55.51523 35455 ft 470 kts 238°
2026-05-05 11:18 51.38752 -55.60399 35441 ft 469 kts 238°
2026-05-05 11:19 51.35289 -55.69194 35430 ft 468 kts 238°
2026-05-05 11:19 51.31804 -55.78011 35429 ft 467 kts 238°
2026-05-05 11:20 51.28350 -55.86723 35430 ft 465 kts 238°
2026-05-05 11:20 51.24881 -55.95443 35434 ft 464 kts 238°
2026-05-05 11:21 51.21405 -56.04152 35441 ft 464 kts 238°
2026-05-05 11:21 51.17946 -56.12789 35427 ft 464 kts 238°
2026-05-05 11:22 51.14466 -56.21446 35420 ft 462 kts 238°
2026-05-05 11:22 51.10993 -56.30060 35421 ft 461 kts 238°
2026-05-05 11:23 51.07543 -56.38590 35423 ft 461 kts 238°
2026-05-05 11:23 51.04060 -56.47170 35432 ft 461 kts 238°
2026-05-05 11:24 51.00586 -56.55705 35433 ft 459 kts 238°
2026-05-05 11:24 50.97130 -56.64162 35432 ft 457 kts 238°
2026-05-05 11:25 50.93676 -56.72589 35432 ft 457 kts 238°
2026-05-05 11:25 50.90188 -56.81072 35424 ft 457 kts 238°
2026-05-05 11:26 50.86724 -56.89466 35436 ft 457 kts 238°
2026-05-05 11:26 50.83242 -56.97881 35448 ft 455 kts 237°
2026-05-05 11:27 50.79784 -57.06206 35451 ft 451 kts 238°
2026-05-05 11:27 50.76324 -57.14514 35465 ft 453 kts 237°
2026-05-05 11:28 50.72858 -57.22811 35468 ft 458 kts 237°
2026-05-05 11:28 50.69319 -57.31258 35493 ft 461 kts 237°
2026-05-05 11:29 50.65792 -57.39641 35491 ft 459 kts 237°
2026-05-05 11:29 50.62258 -57.48016 35504 ft 457 kts 237°
2026-05-05 11:30 50.58734 -57.56341 35522 ft 456 kts 237°
2026-05-05 11:30 50.55212 -57.64634 35531 ft 455 kts 237°
2026-05-05 11:31 50.51695 -57.72893 35573 ft 458 kts 237°
2026-05-05 11:31 50.48128 -57.81241 35568 ft 461 kts 237°
2026-05-05 11:32 50.44556 -57.89575 35582 ft 462 kts 237°
2026-05-05 11:32 50.40963 -57.97928 35564 ft 461 kts 237°
2026-05-05 11:33 50.37372 -58.06253 35596 ft 459 kts 237°
2026-05-05 11:33 50.33787 -58.14537 35606 ft 458 kts 237°
2026-05-05 11:34 50.30196 -58.22806 35601 ft 458 kts 237°
2026-05-05 11:34 50.26620 -58.31016 35602 ft 458 kts 237°
2026-05-05 11:35 50.23025 -58.39249 35611 ft 458 kts 237°
2026-05-05 11:35 50.19442 -58.47425 35624 ft 458 kts 237°
2026-05-05 11:36 50.15832 -58.55638 35622 ft 459 kts 237°
2026-05-05 11:36 50.12231 -58.63804 35618 ft 459 kts 237°
2026-05-05 11:37 50.08604 -58.72005 35624 ft 459 kts 237°
2026-05-05 11:37 50.04968 -58.80200 35628 ft 459 kts 237°
2026-05-05 11:38 50.01352 -58.88324 35639 ft 459 kts 237°
2026-05-05 11:38 49.97708 -58.96487 35642 ft 459 kts 237°
2026-05-05 11:39 49.94058 -59.04638 35638 ft 459 kts 237°
2026-05-05 11:39 49.90422 -59.12732 35648 ft 459 kts 237°
2026-05-05 11:40 49.86758 -59.20864 35653 ft 459 kts 237°
2026-05-05 11:40 49.83092 -59.28975 35665 ft 459 kts 237°
2026-05-05 11:41 49.79441 -59.37029 35650 ft 459 kts 237°
2026-05-05 11:41 49.75758 -59.45130 35670 ft 459 kts 237°
2026-05-05 11:42 49.72093 -59.53166 35673 ft 459 kts 237°
2026-05-05 11:42 49.68406 -59.61225 35679 ft 459 kts 237°
2026-05-05 11:43 49.64708 -59.69284 35677 ft 459 kts 237°
2026-05-05 11:43 49.61024 -59.77286 35688 ft 459 kts 237°
2026-05-05 11:44 49.57320 -59.85310 35690 ft 458 kts 237°
2026-05-05 11:44 49.53610 -59.93322 35687 ft 458 kts 237°
2026-05-05 11:45 49.49921 -60.01264 35694 ft 458 kts 237°
2026-05-05 11:45 49.46206 -60.09240 35700 ft 458 kts 237°
2026-05-05 11:46 49.42480 -60.17215 35698 ft 459 kts 237°
2026-05-05 11:46 49.38759 -60.25156 35709 ft 459 kts 237°
2026-05-05 11:47 49.35015 -60.33122 35713 ft 460 kts 237°
2026-05-05 11:47 49.31280 -60.41045 35709 ft 459 kts 237°
2026-05-05 11:48 49.25648 -60.52947 35721 ft 458 kts 237°
2026-05-05 11:48 49.21920 -60.60797 35722 ft 458 kts 237°
2026-05-05 11:49 49.18166 -60.68679 35732 ft 458 kts 237°
2026-05-05 11:49 49.14410 -60.76541 35728 ft 456 kts 237°
2026-05-05 11:50 49.10682 -60.84321 35746 ft 456 kts 237°
2026-05-05 11:50 49.06933 -60.92122 35756 ft 455 kts 237°
2026-05-05 11:51 49.03182 -60.99906 35750 ft 455 kts 237°
2026-05-05 11:51 48.99426 -61.07676 35742 ft 454 kts 237°
2026-05-05 11:52 48.95688 -61.15390 35749 ft 454 kts 237°
2026-05-05 11:52 48.91926 -61.23125 35759 ft 454 kts 237°
2026-05-05 11:53 48.88161 -61.30851 35767 ft 454 kts 237°
2026-05-05 11:53 48.84411 -61.38523 35747 ft 454 kts 237°
2026-05-05 11:54 48.80645 -61.46204 35767 ft 453 kts 237°
2026-05-05 11:54 48.76874 -61.53872 35773 ft 453 kts 237°
2026-05-05 11:55 48.73102 -61.61522 35779 ft 453 kts 237°
2026-05-05 11:55 48.69345 -61.69117 35765 ft 452 kts 238°
2026-05-05 11:56 48.65565 -61.76739 35772 ft 451 kts 238°
2026-05-05 11:56 48.61818 -61.84274 35782 ft 450 kts 238°
2026-05-05 11:57 48.58041 -61.91848 35788 ft 450 kts 238°
2026-05-05 11:57 48.54268 -61.99393 35794 ft 449 kts 237°
2026-05-05 11:58 48.50526 -62.06852 35784 ft 447 kts 238°
2026-05-05 11:58 48.46767 -62.14327 35802 ft 446 kts 238°
2026-05-05 11:59 48.43011 -62.21774 35810 ft 445 kts 238°
2026-05-05 11:59 48.39284 -62.29146 35798 ft 444 kts 238°
2026-05-05 12:00 48.35534 -62.36539 35805 ft 443 kts 238°
2026-05-05 12:00 48.31792 -62.43902 35815 ft 443 kts 238°
2026-05-05 12:01 48.28064 -62.51218 35816 ft 443 kts 238°
2026-05-05 12:01 48.24300 -62.58582 35817 ft 444 kts 238°
2026-05-05 12:02 48.21165 -62.64700 35796 ft 444 kts 238°
2026-05-05 12:02 48.16777 -62.73236 35815 ft 444 kts 238°
2026-05-05 12:03 48.13630 -62.79342 35820 ft 445 kts 238°
2026-05-05 12:03 48.09845 -62.86671 35822 ft 445 kts 238°
2026-05-05 12:04 48.06043 -62.94011 35819 ft 445 kts 238°
2026-05-05 12:04 48.02267 -63.01282 35820 ft 444 kts 238°
2026-05-05 12:05 47.98464 -63.08583 35821 ft 444 kts 238°
2026-05-05 12:05 47.94668 -63.15854 35822 ft 443 kts 238°
2026-05-05 12:06 47.90895 -63.23061 35821 ft 443 kts 238°
2026-05-05 12:06 47.87096 -63.30299 35822 ft 442 kts 238°
2026-05-05 12:07 47.83291 -63.37527 35822 ft 442 kts 238°
2026-05-05 12:07 47.79509 -63.44696 35822 ft 442 kts 238°
2026-05-05 12:08 47.75698 -63.51898 35816 ft 443 kts 238°
2026-05-05 12:08 47.71882 -63.59091 35818 ft 442 kts 238°
2026-05-05 12:09 47.68089 -63.66221 35819 ft 442 kts 238°
2026-05-05 12:09 47.64273 -63.73377 35819 ft 442 kts 238°
2026-05-05 12:10 47.60451 -63.80524 35822 ft 441 kts 238°
2026-05-05 12:10 47.56649 -63.87617 35809 ft 441 kts 238°
2026-05-05 12:11 47.52826 -63.94730 35818 ft 441 kts 238°
2026-05-05 12:11 47.48994 -64.01840 35822 ft 441 kts 237°
2026-05-05 12:12 47.45180 -64.08900 35837 ft 442 kts 237°
2026-05-05 12:12 47.41340 -64.15988 35814 ft 442 kts 237°
2026-05-05 12:13 47.37487 -64.23082 35828 ft 442 kts 237°
2026-05-05 12:13 47.33651 -64.30127 35823 ft 442 kts 237°
2026-05-05 12:14 47.29785 -64.37209 35835 ft 442 kts 237°
2026-05-05 12:14 47.25943 -64.44227 35817 ft 442 kts 237°
2026-05-05 12:15 47.22070 -64.51284 35830 ft 442 kts 237°
2026-05-05 12:15 47.18197 -64.58324 35839 ft 442 kts 237°
2026-05-05 12:16 47.14342 -64.65314 35832 ft 443 kts 237°
2026-05-05 12:16 47.10445 -64.72361 35804 ft 443 kts 237°
2026-05-05 12:17 47.06578 -64.79335 35825 ft 443 kts 237°
2026-05-05 12:17 47.02678 -64.86351 35832 ft 443 kts 237°
2026-05-05 12:18 46.98793 -64.93324 35831 ft 443 kts 237°
2026-05-05 12:18 46.94881 -65.00326 35805 ft 444 kts 237°
2026-05-05 12:19 46.90959 -65.07328 35832 ft 444 kts 237°
2026-05-05 12:19 46.87056 -65.14279 35838 ft 445 kts 237°
2026-05-05 12:20 46.83117 -65.21275 35840 ft 445 kts 237°
2026-05-05 12:20 46.79164 -65.28279 35839 ft 445 kts 237°
2026-05-05 12:21 46.75245 -65.35205 35828 ft 445 kts 236°
2026-05-05 12:21 46.71295 -65.42167 35833 ft 445 kts 236°
2026-05-05 12:22 46.67367 -65.49076 35834 ft 445 kts 236°
2026-05-05 12:22 46.63415 -65.56007 35837 ft 445 kts 236°
2026-05-05 12:23 46.59449 -65.62946 35836 ft 444 kts 236°
2026-05-05 12:23 46.55510 -65.69819 35841 ft 445 kts 236°
2026-05-05 12:24 46.51542 -65.76728 35839 ft 445 kts 236°
2026-05-05 12:24 46.47557 -65.83648 35844 ft 445 kts 236°
2026-05-05 12:25 46.43602 -65.90496 35831 ft 445 kts 236°
2026-05-05 12:25 46.39613 -65.97389 35841 ft 445 kts 236°
2026-05-05 12:26 46.35616 -66.04277 35837 ft 445 kts 236°
2026-05-05 12:26 46.31651 -66.11095 35842 ft 445 kts 236°
2026-05-05 12:27 46.27651 -66.17954 35840 ft 445 kts 236°
2026-05-05 12:27 46.23656 -66.24789 35840 ft 445 kts 236°
2026-05-05 12:28 46.19677 -66.31579 35840 ft 444 kts 235°
2026-05-05 12:28 46.15668 -66.38403 35844 ft 444 kts 235°
2026-05-05 12:29 46.11663 -66.45205 35844 ft 444 kts 235°
2026-05-05 12:29 46.07686 -66.51941 35850 ft 444 kts 235°
2026-05-05 12:30 46.03665 -66.58735 35843 ft 444 kts 235°
2026-05-05 12:30 45.99670 -66.65472 35816 ft 445 kts 235°
2026-05-05 12:31 45.95650 -66.72231 35837 ft 445 kts 235°
2026-05-05 12:31 45.91624 -66.78986 35843 ft 445 kts 235°
2026-05-05 12:32 45.87593 -66.85731 35837 ft 445 kts 235°
2026-05-05 12:32 45.83570 -66.92447 35810 ft 446 kts 234°
2026-05-05 12:33 45.79520 -66.99190 35831 ft 446 kts 234°
2026-05-05 12:33 45.75468 -67.05921 35837 ft 446 kts 234°
2026-05-05 12:34 45.71412 -67.12642 35844 ft 445 kts 234°
2026-05-05 12:34 45.67376 -67.19314 35825 ft 445 kts 234°
2026-05-05 12:35 45.63322 -67.26001 35845 ft 444 kts 234°
2026-05-05 12:35 45.59266 -67.32675 35836 ft 444 kts 234°
2026-05-05 12:36 45.55230 -67.39299 35841 ft 444 kts 234°
2026-05-05 12:36 45.51174 -67.45941 35837 ft 443 kts 234°
2026-05-05 12:37 45.47141 -67.52531 35848 ft 443 kts 234°
2026-05-05 12:37 45.43083 -67.59146 35842 ft 443 kts 234°
2026-05-05 12:38 45.39043 -67.65716 35842 ft 443 kts 234°
2026-05-05 12:38 45.34977 -67.72315 35829 ft 443 kts 234°
2026-05-05 12:39 45.30869 -67.78892 35849 ft 444 kts 233°
2026-05-05 12:39 45.26731 -67.85397 35859 ft 446 kts 233°
2026-05-05 12:40 45.22564 -67.91931 35855 ft 446 kts 233°
2026-05-05 12:40 45.18389 -67.98477 35850 ft 446 kts 233°
2026-05-05 12:41 45.14248 -68.04963 35851 ft 446 kts 233°
2026-05-05 12:41 45.10079 -68.11480 35855 ft 446 kts 233°
2026-05-05 12:42 45.05906 -68.17988 35859 ft 446 kts 233°
2026-05-05 12:42 45.01751 -68.24453 35857 ft 446 kts 232°
2026-05-05 12:43 44.97568 -68.30944 35864 ft 446 kts 232°
2026-05-05 12:43 44.93375 -68.37437 35858 ft 447 kts 232°
2026-05-05 12:44 44.89176 -68.43923 35853 ft 447 kts 232°
2026-05-05 12:44 44.85003 -68.50354 35869 ft 447 kts 232°
2026-05-05 12:45 44.80802 -68.56815 35856 ft 447 kts 232°
2026-05-05 12:45 44.76595 -68.63268 35860 ft 446 kts 232°
2026-05-05 12:46 44.72386 -68.69711 35864 ft 447 kts 232°
2026-05-05 12:46 44.68199 -68.76104 35855 ft 446 kts 232°
2026-05-05 12:47 44.63994 -68.82509 35870 ft 444 kts 232°
2026-05-05 12:47 44.59797 -68.88889 35849 ft 443 kts 232°
2026-05-05 12:48 44.55612 -68.95235 35848 ft 442 kts 231°
2026-05-05 12:48 44.51454 -69.01526 35848 ft 442 kts 231°
2026-05-05 12:49 44.47263 -69.07854 35846 ft 442 kts 231°
2026-05-05 12:49 44.43103 -69.14121 35855 ft 442 kts 231°
2026-05-05 12:50 44.38918 -69.20411 35848 ft 442 kts 231°
2026-05-05 12:50 44.35432 -69.25639 35851 ft 442 kts 231°
2026-05-05 12:51 44.31228 -69.31932 35857 ft 443 kts 231°
2026-05-05 12:51 44.27016 -69.38223 35846 ft 443 kts 231°
2026-05-05 12:52 44.22821 -69.44473 35858 ft 443 kts 231°
2026-05-05 12:52 44.18595 -69.50753 35880 ft 444 kts 231°
2026-05-05 12:53 44.14366 -69.57026 35878 ft 443 kts 230°
2026-05-05 12:53 44.10159 -69.63253 35882 ft 443 kts 230°
2026-05-05 12:54 44.03820 -69.72608 35899 ft 442 kts 230°
2026-05-05 12:55 43.99621 -69.78788 35896 ft 442 kts 230°
2026-05-05 12:55 43.95392 -69.85000 35871 ft 442 kts 230°
2026-05-05 12:56 43.91160 -69.91200 35887 ft 442 kts 230°
2026-05-05 12:56 43.86945 -69.97363 35891 ft 442 kts 230°
2026-05-05 12:57 43.82692 -70.03568 35884 ft 443 kts 230°
2026-05-05 12:57 43.78430 -70.09771 35881 ft 444 kts 230°
2026-05-05 12:58 43.74187 -70.15934 35859 ft 444 kts 230°
2026-05-05 12:58 43.69913 -70.22128 35861 ft 444 kts 230°
2026-05-05 12:59 43.65664 -70.28272 35860 ft 445 kts 230°
2026-05-05 12:59 43.61380 -70.34453 35860 ft 444 kts 230°
2026-05-05 13:00 43.54977 -70.43668 35868 ft 444 kts 230°
2026-05-05 13:01 43.46423 -70.55935 35870 ft 443 kts 229°
2026-05-05 13:01 43.41926 -70.61641 35874 ft 448 kts 215°
2026-05-05 13:02 43.39062 -70.63391 35881 ft 452 kts 202°
2026-05-05 13:02 43.36063 -70.64759 35886 ft 454 kts 203°
2026-05-05 13:02 43.30085 -70.67572 35877 ft 457 kts 203°
2026-05-05 13:03 43.24052 -70.70500 35882 ft 460 kts 204°
2026-05-05 13:03 43.17990 -70.73468 35869 ft 462 kts 204°
2026-05-05 13:04 43.11954 -70.76418 35857 ft 463 kts 204°
2026-05-05 13:04 43.05881 -70.79378 35861 ft 462 kts 204°
2026-05-05 13:05 42.99862 -70.82304 35857 ft 460 kts 204°
2026-05-05 13:05 42.93825 -70.85233 35853 ft 459 kts 203°
2026-05-05 13:06 42.87809 -70.88147 35898 ft 458 kts 203°
2026-05-05 13:06 42.81793 -70.91054 35908 ft 458 kts 204°
2026-05-05 13:07 42.75789 -70.93953 35898 ft 457 kts 203°
2026-05-05 13:07 42.69823 -70.96827 35915 ft 457 kts 203°
2026-05-05 13:08 42.63813 -70.99717 35910 ft 457 kts 203°
2026-05-05 13:08 42.57843 -71.02583 35901 ft 458 kts 203°
2026-05-05 13:09 42.51859 -71.05451 35907 ft 458 kts 203°
2026-05-05 13:09 42.45861 -71.08318 35907 ft 458 kts 203°
2026-05-05 13:10 42.39888 -71.11168 35898 ft 458 kts 202°
2026-05-05 13:10 42.33865 -71.14036 35909 ft 458 kts 202°
2026-05-05 13:11 42.27837 -71.16900 35937 ft 458 kts 202°
2026-05-05 13:11 42.21846 -71.19741 35926 ft 458 kts 202°
2026-05-05 13:12 42.15822 -71.22593 35936 ft 459 kts 202°
2026-05-05 13:12 42.09778 -71.25449 35940 ft 459 kts 202°
2026-05-05 13:13 42.03772 -71.28280 35939 ft 459 kts 202°
2026-05-05 13:13 41.97832 -71.31070 35844 ft 442 kts 202°
2026-05-05 13:14 41.92135 -71.33742 35658 ft 424 kts 202°
2026-05-05 13:14 41.89363 -71.35043 35409 ft 419 kts 202°
2026-05-05 13:14 41.86649 -71.36317 35055 ft 418 kts 201°
2026-05-05 13:15 41.83905 -71.37604 34700 ft 416 kts 201°
2026-05-05 13:15 41.81179 -71.38880 34391 ft 413 kts 201°
2026-05-05 13:15 41.78472 -71.40146 34105 ft 410 kts 201°
2026-05-05 13:15 41.75766 -71.41409 33803 ft 407 kts 201°
2026-05-05 13:16 41.73141 -71.42670 33454 ft 404 kts 205°
2026-05-05 13:16 41.70749 -71.44574 33005 ft 397 kts 221°
2026-05-05 13:16 41.68655 -71.47005 32544 ft 398 kts 221°
2026-05-05 13:16 41.66554 -71.49433 32141 ft 397 kts 221°
2026-05-05 13:17 41.64483 -71.51796 31786 ft 394 kts 221°
2026-05-05 13:17 41.62394 -71.54156 31389 ft 391 kts 220°
2026-05-05 13:17 41.60314 -71.56489 30957 ft 388 kts 220°
2026-05-05 13:17 41.58247 -71.58798 30529 ft 386 kts 220°
2026-05-05 13:18 41.56187 -71.61092 30102 ft 384 kts 219°
2026-05-05 13:18 41.54137 -71.63372 29622 ft 381 kts 219°
2026-05-05 13:18 41.52126 -71.65605 29153 ft 379 kts 219°
2026-05-05 13:18 41.50105 -71.67848 28718 ft 376 kts 219°
2026-05-05 13:19 41.48096 -71.70075 28297 ft 373 kts 219°
2026-05-05 13:19 41.46102 -71.72285 27845 ft 371 kts 219°
2026-05-05 13:19 41.44122 -71.74478 27428 ft 368 kts 219°
2026-05-05 13:19 41.42181 -71.76626 27001 ft 366 kts 219°
2026-05-05 13:20 41.40223 -71.78792 26569 ft 364 kts 219°
2026-05-05 13:20 41.38281 -71.80937 26143 ft 362 kts 219°
2026-05-05 13:20 41.36345 -71.83074 25721 ft 360 kts 219°
2026-05-05 13:20 41.34422 -71.85196 25304 ft 359 kts 219°
2026-05-05 13:21 41.32501 -71.87315 24874 ft 357 kts 219°
2026-05-05 13:21 41.30588 -71.89421 24462 ft 356 kts 219°
2026-05-05 13:21 41.28682 -71.91517 24045 ft 354 kts 219°
2026-05-05 13:21 41.26810 -71.93575 23663 ft 352 kts 220°
2026-05-05 13:22 41.24924 -71.95645 23241 ft 349 kts 220°
2026-05-05 13:22 41.23059 -71.97692 22841 ft 345 kts 220°
2026-05-05 13:22 41.21214 -71.99716 22458 ft 341 kts 220°
2026-05-05 13:22 41.19394 -72.01710 22096 ft 337 kts 220°
2026-05-05 13:23 41.17618 -72.03656 21749 ft 332 kts 220°
2026-05-05 13:23 41.15843 -72.05601 21402 ft 328 kts 220°
2026-05-05 13:23 41.14091 -72.07518 21055 ft 324 kts 220°
2026-05-05 13:23 41.12361 -72.09408 20724 ft 320 kts 220°
2026-05-05 13:24 41.10691 -72.11328 20364 ft 314 kts 228°
2026-05-05 13:24 41.09493 -72.13733 20057 ft 312 kts 245°
2026-05-05 13:24 41.08743 -72.16445 19738 ft 314 kts 249°
2026-05-05 13:24 41.08076 -72.19178 19418 ft 317 kts 250°
2026-05-05 13:25 41.07409 -72.21969 19074 ft 318 kts 250°
2026-05-05 13:25 41.06736 -72.24770 18744 ft 318 kts 250°
2026-05-05 13:25 41.06060 -72.27560 18414 ft 317 kts 251°
2026-05-05 13:25 41.05381 -72.30339 18041 ft 314 kts 251°
2026-05-05 13:26 41.04706 -72.33081 17672 ft 311 kts 251°
2026-05-05 13:26 41.04037 -72.35786 17355 ft 306 kts 251°
2026-05-05 13:26 41.03386 -72.38412 17036 ft 302 kts 251°
2026-05-05 13:26 41.02734 -72.41032 16731 ft 297 kts 251°
2026-05-05 13:27 41.02088 -72.43619 16409 ft 294 kts 251°
2026-05-05 13:27 41.01448 -72.46181 16108 ft 291 kts 251°
2026-05-05 13:27 41.00814 -72.48716 15809 ft 288 kts 251°
2026-05-05 13:27 41.00185 -72.51229 15506 ft 286 kts 251°
2026-05-05 13:28 40.99568 -72.53689 15211 ft 284 kts 251°
2026-05-05 13:28 40.98947 -72.56162 14916 ft 282 kts 251°
2026-05-05 13:28 40.98328 -72.58627 14617 ft 281 kts 251°
2026-05-05 13:28 40.97711 -72.61076 14341 ft 279 kts 251°
2026-05-05 13:29 40.97098 -72.63514 14048 ft 278 kts 251°
2026-05-05 13:29 40.96486 -72.65945 13735 ft 277 kts 251°
2026-05-05 13:29 40.95876 -72.68362 13406 ft 276 kts 251°
2026-05-05 13:29 40.95270 -72.70765 13092 ft 274 kts 251°
2026-05-05 13:30 40.94674 -72.73123 12816 ft 272 kts 251°
2026-05-05 13:30 40.94078 -72.75479 12560 ft 267 kts 250°
2026-05-05 13:30 40.93491 -72.77798 12203 ft 264 kts 250°
2026-05-05 13:30 40.92637 -72.79910 12030 ft 261 kts 232°
2026-05-05 13:31 40.91328 -72.81588 11827 ft 263 kts 220°
2026-05-05 13:31 40.89856 -72.83034 11462 ft 264 kts 218°
2026-05-05 13:31 40.88362 -72.84430 11030 ft 267 kts 218°
2026-05-05 13:31 40.86845 -72.85844 10694 ft 265 kts 217°
2026-05-05 13:32 40.85347 -72.87249 10381 ft 263 kts 218°
2026-05-05 13:32 40.83860 -72.88653 10076 ft 261 kts 217°
2026-05-05 13:32 40.82384 -72.90053 9743 ft 260 kts 217°
2026-05-05 13:32 40.80910 -72.91456 9368 ft 260 kts 217°
2026-05-05 13:33 40.79447 -72.92852 9026 ft 259 kts 218°
2026-05-05 13:33 40.78009 -72.94225 8708 ft 257 kts 218°
2026-05-05 13:33 40.76560 -72.95610 8389 ft 255 kts 218°
2026-05-05 13:33 40.75141 -72.96965 8159 ft 250 kts 218°
2026-05-05 13:34 40.73723 -72.98320 7791 ft 251 kts 218°
2026-05-05 13:34 40.72308 -72.99670 7441 ft 251 kts 218°
2026-05-05 13:34 40.70907 -73.01006 7072 ft 252 kts 218°
2026-05-05 13:34 40.69558 -73.02452 6653 ft 248 kts 231°
2026-05-05 13:35 40.68756 -73.04481 6192 ft 253 kts 252°
2026-05-05 13:35 40.68493 -73.06765 5889 ft 252 kts 265°
2026-05-05 13:35 40.68487 -73.09064 5616 ft 250 kts 268°
2026-05-05 13:35 40.68522 -73.11329 5300 ft 249 kts 268°
2026-05-05 13:36 40.68557 -73.13600 4991 ft 247 kts 268°
2026-05-05 13:36 40.68587 -73.15864 4675 ft 247 kts 268°
2026-05-05 13:36 40.68610 -73.18130 4368 ft 246 kts 268°
2026-05-05 13:36 40.68629 -73.20376 4089 ft 243 kts 268°
2026-05-05 13:37 40.68639 -73.21847 3894 ft 242 kts 268°
2026-05-05 13:37 40.68653 -73.24064 3621 ft 240 kts 268°
2026-05-05 13:37 40.68664 -73.26258 3331 ft 239 kts 268°
2026-05-05 13:37 40.68674 -73.28454 3085 ft 236 kts 268°
2026-05-05 13:38 40.68682 -73.30590 3046 ft 232 kts 269°
2026-05-05 13:38 40.68691 -73.32736 3027 ft 237 kts 269°
2026-05-05 13:38 40.68718 -73.34918 2998 ft 237 kts 274°
2026-05-05 13:38 40.69229 -73.36994 3001 ft 241 kts 295°
2026-05-05 13:39 40.70035 -73.38943 3015 ft 249 kts 294°
2026-05-05 13:39 40.70832 -73.40968 3005 ft 246 kts 294°
2026-05-05 13:39 40.71600 -73.42922 2998 ft 234 kts 294°
2026-05-05 13:39 40.72333 -73.44779 2993 ft 224 kts 294°
2026-05-05 13:40 40.73049 -73.46598 2996 ft 220 kts 293°
2026-05-05 13:40 40.73746 -73.48365 2986 ft 214 kts 293°
2026-05-05 13:40 40.74430 -73.50105 2989 ft 213 kts 293°
2026-05-05 13:40 40.75100 -73.51809 2996 ft 211 kts 293°
2026-05-05 13:41 40.75780 -73.53538 3005 ft 212 kts 294°
2026-05-05 13:41 40.76460 -73.55265 3009 ft 212 kts 294°
2026-05-05 13:41 40.77138 -73.56991 2992 ft 211 kts 294°
2026-05-05 13:41 40.77802 -73.58680 2984 ft 202 kts 294°
2026-05-05 13:42 40.78435 -73.60286 2956 ft 193 kts 293°
2026-05-05 13:42 40.78877 -73.61879 2957 ft 185 kts 270°
2026-05-05 13:42 40.78639 -73.63541 2952 ft 190 kts 248°
2026-05-05 13:42 40.77885 -73.64988 2733 ft 194 kts 221°
2026-05-05 13:43 40.76744 -73.65880 2527 ft 186 kts 215°
2026-05-05 13:43 40.75655 -73.66738 2361 ft 180 kts 217°
2026-05-05 13:43 40.74586 -73.67584 2218 ft 176 kts 217°
2026-05-05 13:43 40.73571 -73.68386 2045 ft 167 kts 216°
2026-05-05 13:44 40.72619 -73.69130 1878 ft 152 kts 217°
2026-05-05 13:44 40.71735 -73.69827 1694 ft 142 kts 217°
2026-05-05 13:44 40.70912 -73.70474 1485 ft 135 kts 218°
2026-05-05 13:44 40.70082 -73.71129 1308 ft 142 kts 217°
2026-05-05 13:45 40.69237 -73.71790 1115 ft 140 kts 216°
2026-05-05 13:45 40.68388 -73.72459 933 ft 143 kts 214°
2026-05-05 13:45 40.67545 -73.73135 768 ft 143 kts 213°
2026-05-05 13:45 40.66686 -73.73795 556 ft 143 kts 210°
2026-05-05 13:46 40.65817 -73.74483 364 ft 144 kts 208°
2026-05-05 13:46 40.64954 -73.75141 165 ft 140 kts 208°
2026-05-05 13:46 40.64104 -73.75811 38 ft 141 kts 209°
2026-05-05 13:46 40.63360 -73.76396 27 ft 103 kts 210°
2026-05-05 13:47 40.63044 -73.76660 27 ft 25 kts 226°
2026-05-05 13:47 40.62980 -73.76777 29 ft 11 kts 237°
2026-05-05 13:47 40.62948 -73.76848 29 ft 9 kts 243°
2026-05-05 13:47 40.62934 -73.76922 29 ft 8 kts 266°
2026-05-05 13:48 40.62946 -73.76995 28 ft 8 kts 293°
2026-05-05 13:48 40.62972 -73.77064 30 ft 9 kts 298°
2026-05-05 13:48 40.63003 -73.77134 31 ft 9 kts 301°
2026-05-05 13:48 40.63036 -73.77203 30 ft 8 kts 302°
2026-05-05 13:49 40.63066 -73.77270 30 ft 8 kts 300°
2026-05-05 13:49 40.63097 -73.77338 32 ft 9 kts 300°
2026-05-05 13:49 40.63122 -73.77390 26 ft 6 kts 301°
2026-05-05 13:49 40.63145 -73.77439 26 ft 7 kts 301°
2026-05-05 13:50 40.63169 -73.77492 27 ft 7 kts 297°
2026-05-05 13:50 40.63192 -73.77548 27 ft 7 kts 300°
2026-05-05 13:50 40.63212 -73.77591 28 ft 5 kts 301°
2026-05-05 13:50 40.63231 -73.77634 28 ft 7 kts 300°
2026-05-05 13:51 40.63278 -73.77740 29 ft 12 kts 301°
2026-05-05 13:51 40.63308 -73.77809 28 ft 6 kts 301°
2026-05-05 13:51 40.63337 -73.77870 27 ft 9 kts 301°
2026-05-05 13:51 40.63372 -73.77949 31 ft 11 kts 300°
2026-05-05 13:52 40.63401 -73.78017 30 ft 8 kts 299°
2026-05-05 13:52 40.63429 -73.78082 30 ft 8 kts 299°
2026-05-05 13:52 40.63458 -73.78148 30 ft 9 kts 300°
2026-05-05 13:52 40.63489 -73.78217 31 ft 9 kts 302°
2026-05-05 13:53 40.63523 -73.78290 30 ft 10 kts 301°
2026-05-05 13:53 40.63558 -73.78367 32 ft 10 kts 300°
2026-05-05 13:53 40.63596 -73.78451 29 ft 11 kts 300°
2026-05-05 13:53 40.63639 -73.78547 30 ft 13 kts 301°
2026-05-05 13:54 40.63677 -73.78633 29 ft 8 kts 301°
2026-05-05 13:54 40.63706 -73.78694 29 ft 8 kts 301°
2026-05-05 13:54 40.63740 -73.78768 30 ft 10 kts 301°
2026-05-05 13:54 40.63781 -73.78858 31 ft 13 kts 301°
2026-05-05 13:55 40.63817 -73.78940 30 ft 7 kts 300°
2026-05-05 13:55 40.63844 -73.79001 31 ft 9 kts 300°
2026-05-05 13:55 40.63879 -73.79079 31 ft 11 kts 301°
2026-05-05 13:55 40.63923 -73.79171 30 ft 11 kts 302°
2026-05-05 13:56 40.63950 -73.79217 31 ft 5 kts 322°
2026-05-05 13:56 40.63988 -73.79223 28 ft 6 kts 13°
2026-05-05 13:56 40.64023 -73.79197 31 ft 2 kts 36°
2026-05-05 13:56 40.64052 -73.79175 30 ft 7 kts 16°
2026-05-05 13:57 40.64079 -73.79183 29 ft 4 kts 333°
2026-05-05 13:57 40.64103 -73.79202 27 ft 3 kts 328°
2026-05-05 13:57 40.64114 -73.79211 31 ft 0 kts 327°